Time,TemperatureF,DewpointF,PressureIn,WindDirection,WindDirectionDegrees,WindSpeedMPH,WindSpeedGustMPH,Humidity,HourlyPrecipIn,Conditions,Clouds,dailyrainin,SolarRadiationWatts/m^2,SoftwareType,DateUTC
2013-01-27 00:00:00,47.3,46.2,30.11,ESE,112,4.0,6.0,96,0.00,,---,0.01,0.00,VWS V14.00,2013-01-27 06:00:00,
2013-01-27 00:02:00,47.3,46.2,30.11,ESE,118,3.0,5.0,96,0.00,,---,0.00,0.00,VWS V14.00,2013-01-27 06:02:00,
2013-01-27 00:06:00,47.3,46.2,30.11,ESE,117,4.0,6.0,96,0.00,,---,0.00,0.00,VWS V14.00,2013-01-27 06:06:00,
2013-01-27 00:10:00,47.4,46.3,30.11,SE,140,3.0,6.0,96,0.00,,---,0.00,0.00,VWS V14.00,2013-01-27 06:10:00,
2013-01-27 00:14:00,47.4,46.3,30.11,ESE,123,4.0,6.0,96,0.00,,---,0.00,0.00,VWS V14.00,2013-01-27 06:14:00,
2013-01-27 00:18:00,47.4,46.3,30.11,SE,130,4.0,7.0,96,0.00,,---,0.00,0.00,VWS V14.00,2013-01-27 06:18:00,
2013-01-27 00:22:00,47.5,46.4,30.11,SE,134,2.0,7.0,96,0.00,,---,0.00,0.00,VWS V14.00,2013-01-27 06:22:00,
2013-01-27 00:26:00,47.5,46.4,30.11,SE,130,9.0,9.0,96,0.00,,---,0.00,0.00,VWS V14.00,2013-01-27 06:26:00,
2013-01-27 00:30:00,47.5,46.4,30.11,SE,126,4.0,9.0,96,0.00,,---,0.00,0.00,VWS V14.00,2013-01-27 06:30:00,
2013-01-27 00:34:00,47.5,46.4,30.11,ESE,120,3.0,4.0,96,0.00,,---,0.00,0.00,VWS V14.00,2013-01-27 06:34:00,
2013-01-27 00:38:00,47.6,46.5,30.11,SE,140,4.0,6.0,96,0.00,,---,0.00,0.00,VWS V14.00,2013-01-27 06:38:00,
2013-01-27 00:42:00,47.6,46.8,30.11,SE,134,2.0,7.0,97,0.00,,---,0.00,0.00,VWS V14.00,2013-01-27 06:42:00,
2013-01-27 00:51:00,47.7,46.9,30.11,SE,140,2.0,7.0,97,0.00,,---,0.00,0.00,VWS V14.00,2013-01-27 06:51:00,
2013-01-27 00:55:00,47.7,46.9,30.11,ESE,116,3.0,7.0,97,0.00,,---,0.00,0.00,VWS V14.00,2013-01-27 06:55:00,
2013-01-27 00:59:00,47.8,47.0,30.11,ESE,122,3.0,7.0,97,0.00,,---,0.00,0.00,VWS V14.00,2013-01-27 06:59:00,
2013-01-27 01:00:00,47.8,47.0,30.11,SE,124,3.0,7.0,97,0.00,,---,0.00,0.00,VWS V14.00,2013-01-27 07:00:00,
2013-01-27 01:03:00,47.8,47.0,30.11,ESE,118,3.0,4.0,97,0.00,,---,0.00,0.00,VWS V14.00,2013-01-27 07:03:00,
2013-01-27 01:07:00,47.9,47.1,30.11,ESE,119,3.0,4.0,97,0.00,,---,0.00,0.00,VWS V14.00,2013-01-27 07:07:00,
2013-01-27 01:11:00,47.9,46.8,30.11,ESE,116,2.0,5.0,96,0.00,,---,0.00,0.00,VWS V14.00,2013-01-27 07:11:00,
2013-01-27 01:15:00,47.9,46.8,30.11,ESE,122,1.0,5.0,96,0.00,,---,0.00,0.00,VWS V14.00,2013-01-27 07:15:00,
2013-01-27 01:19:00,48.0,46.9,30.11,SE,126,2.0,5.0,96,0.00,,---,0.00,0.00,VWS V14.00,2013-01-27 07:19:00,
2013-01-27 01:23:00,48.1,47.0,30.11,SE,128,1.0,5.0,96,0.00,,---,0.00,0.00,VWS V14.00,2013-01-27 07:23:00,
2013-01-27 01:27:00,48.1,47.0,30.11,ESE,120,0.0,5.0,96,0.00,,---,0.00,0.00,VWS V14.00,2013-01-27 07:27:00,
2013-01-27 01:30:00,48.1,47.0,30.12,ESE,120,0.0,5.0,96,0.00,,---,0.00,0.00,VWS V14.00,2013-01-27 07:30:00,
2013-01-27 01:31:00,48.1,47.0,30.12,ESE,121,1.0,1.0,96,0.00,,---,0.00,0.00,VWS V14.00,2013-01-27 07:31:00,
2013-01-27 01:35:00,48.2,47.1,30.12,East,87,2.0,2.0,96,0.00,,---,0.00,0.00,VWS V14.00,2013-01-27 07:35:00,
2013-01-27 01:39:00,48.2,47.4,30.12,East,92,2.0,2.0,97,0.00,,---,0.00,0.00,VWS V14.00,2013-01-27 07:39:00,
2013-01-27 01:43:00,48.2,47.4,30.12,ESE,114,3.0,3.0,97,0.00,,---,0.00,0.00,VWS V14.00,2013-01-27 07:43:00,
2013-01-27 01:47:00,48.3,47.5,30.11,ESE,114,2.0,3.0,97,0.00,,---,0.00,0.00,VWS V14.00,2013-01-27 07:47:00,
2013-01-27 01:51:00,48.3,47.5,30.11,SE,125,1.0,3.0,97,0.00,,---,0.00,0.00,VWS V14.00,2013-01-27 07:51:00,
2013-01-27 01:55:00,48.3,47.5,30.11,ESE,118,2.0,3.0,97,0.00,,---,0.00,0.00,VWS V14.00,2013-01-27 07:55:00,
2013-01-27 01:59:00,48.4,47.6,30.10,East,98,4.0,4.0,97,0.00,,---,0.00,0.00,VWS V14.00,2013-01-27 07:59:00,
2013-01-27 02:00:00,48.4,47.6,30.10,East,100,3.0,4.0,97,0.00,,---,0.00,0.00,VWS V14.00,2013-01-27 08:00:00,
2013-01-27 02:03:00,48.4,47.6,30.10,ESE,107,2.0,3.0,97,0.00,,---,0.00,0.00,VWS V14.00,2013-01-27 08:03:00,
2013-01-27 02:07:00,48.4,47.6,30.10,ESE,108,2.0,3.0,97,0.00,,---,0.00,0.00,VWS V14.00,2013-01-27 08:07:00,
2013-01-27 02:11:00,48.4,47.6,30.10,East,99,3.0,4.0,97,0.00,,---,0.00,0.00,VWS V14.00,2013-01-27 08:11:00,
2013-01-27 02:15:00,48.5,47.7,30.10,SE,126,3.0,4.0,97,0.00,,---,0.00,0.00,VWS V14.00,2013-01-27 08:15:00,
2013-01-27 02:19:00,48.6,47.8,30.10,ESE,122,3.0,4.0,97,0.00,,---,0.00,0.00,VWS V14.00,2013-01-27 08:19:00,
2013-01-27 02:23:00,48.6,47.8,30.10,SE,143,1.0,4.0,97,0.00,,---,0.00,0.00,VWS V14.00,2013-01-27 08:23:00,
2013-01-27 02:27:00,48.7,47.9,30.10,SE,140,2.0,4.0,97,0.00,,---,0.00,0.00,VWS V14.00,2013-01-27 08:27:00,
2013-01-27 02:30:00,48.7,47.9,30.10,SE,137,3.0,4.0,97,0.00,,---,0.00,0.00,VWS V14.00,2013-01-27 08:30:00,
2013-01-27 02:31:00,48.7,47.9,30.10,ESE,111,3.0,3.0,97,0.00,,---,0.00,0.00,VWS V14.00,2013-01-27 08:31:00,
2013-01-27 02:35:00,48.7,47.9,30.10,ESE,114,3.0,3.0,97,0.00,,---,0.00,0.00,VWS V14.00,2013-01-27 08:35:00,
2013-01-27 02:39:00,48.7,47.9,30.10,ESE,115,1.0,3.0,97,0.00,,---,0.00,0.00,VWS V14.00,2013-01-27 08:39:00,
2013-01-27 02:43:00,48.8,48.0,30.10,ESE,115,1.0,3.0,97,0.00,,---,0.00,0.00,VWS V14.00,2013-01-27 08:43:00,
2013-01-27 02:47:00,48.9,48.1,30.10,ESE,121,1.0,3.0,97,0.00,,---,0.00,0.00,VWS V14.00,2013-01-27 08:47:00,
2013-01-27 02:51:00,49.0,48.2,30.10,ESE,118,1.0,3.0,97,0.00,,---,0.00,0.00,VWS V14.00,2013-01-27 08:51:00,
2013-01-27 02:55:00,49.1,48.3,30.10,ESE,117,3.0,3.0,97,0.00,,---,0.00,0.00,VWS V14.00,2013-01-27 08:55:00,
2013-01-27 03:00:00,49.2,48.4,30.10,ESE,117,0.0,3.0,97,0.00,,---,0.00,0.00,VWS V14.00,2013-01-27 09:00:00,
2013-01-27 03:04:00,49.2,48.4,30.10,SE,128,0.0,3.0,97,0.00,,---,0.00,0.00,VWS V14.00,2013-01-27 09:04:00,
2013-01-27 03:08:00,49.3,48.5,30.10,SE,125,2.0,3.0,97,0.00,,---,0.00,0.00,VWS V14.00,2013-01-27 09:08:00,
2013-01-27 03:12:00,49.4,48.6,30.10,ESE,107,4.0,4.0,97,0.00,,---,0.00,0.00,VWS V14.00,2013-01-27 09:12:00,
2013-01-27 03:16:00,49.4,48.6,30.08,ESE,121,3.0,5.0,97,0.00,,---,0.00,0.00,VWS V14.00,2013-01-27 09:16:00,
2013-01-27 03:20:00,49.5,48.7,30.08,ESE,119,4.0,5.0,97,0.00,,---,0.00,0.00,VWS V14.00,2013-01-27 09:20:00,
2013-01-27 03:24:00,49.5,48.7,30.08,ESE,115,2.0,5.0,97,0.00,,---,0.00,0.00,VWS V14.00,2013-01-27 09:24:00,
2013-01-27 03:28:00,49.6,48.8,30.08,ESE,118,3.0,5.0,97,0.00,,---,0.00,0.00,VWS V14.00,2013-01-27 09:28:00,
2013-01-27 03:30:00,49.6,48.8,30.08,SE,133,1.0,5.0,97,0.00,,---,0.00,0.00,VWS V14.00,2013-01-27 09:30:00,
2013-01-27 03:32:00,49.6,48.8,30.08,ESE,113,3.0,3.0,97,0.00,,---,0.00,0.00,VWS V14.00,2013-01-27 09:32:00,
2013-01-27 03:36:00,49.8,49.0,30.08,ESE,120,3.0,6.0,97,0.00,,---,0.00,0.00,VWS V14.00,2013-01-27 09:36:00,
2013-01-27 03:40:00,49.9,49.1,30.08,SE,130,5.0,6.0,97,0.00,,---,0.00,0.00,VWS V14.00,2013-01-27 09:40:00,
2013-01-27 03:44:00,49.9,49.1,30.08,ESE,117,4.0,6.0,97,0.00,,---,0.00,0.00,VWS V14.00,2013-01-27 09:44:00,
2013-01-27 03:48:00,50.0,49.2,30.08,ESE,117,3.0,6.0,97,0.00,,---,0.00,0.00,VWS V14.00,2013-01-27 09:48:00,
2013-01-27 03:52:00,50.1,49.3,30.08,SE,127,3.0,6.0,97,0.00,,---,0.00,0.00,VWS V14.00,2013-01-27 09:52:00,
2013-01-27 03:56:00,50.2,49.4,30.08,ESE,122,4.0,6.0,97,0.00,,---,0.00,0.00,VWS V14.00,2013-01-27 09:56:00,
2013-01-27 04:00:00,50.3,49.5,30.08,ESE,115,2.0,6.0,97,0.00,,---,0.00,0.00,VWS V14.00,2013-01-27 10:00:00,
2013-01-27 04:04:00,50.3,49.5,30.08,ESE,118,0.0,2.0,97,0.00,,---,0.00,0.00,VWS V14.00,2013-01-27 10:04:00,
2013-01-27 04:08:00,50.4,49.6,30.08,ESE,118,2.0,2.0,97,0.00,,---,0.00,0.00,VWS V14.00,2013-01-27 10:08:00,
2013-01-27 04:12:00,50.4,49.6,30.08,ESE,118,0.0,2.0,97,0.00,,---,0.00,0.00,VWS V14.00,2013-01-27 10:12:00,
2013-01-27 04:16:00,50.4,49.6,30.08,ESE,118,0.0,2.0,97,0.00,,---,0.00,0.00,VWS V14.00,2013-01-27 10:16:00,
2013-01-27 04:20:00,50.5,49.7,30.08,ESE,118,0.0,2.0,97,0.00,,---,0.00,0.00,VWS V14.00,2013-01-27 10:20:00,
2013-01-27 04:24:00,50.5,49.7,30.08,ESE,118,0.0,2.0,97,0.00,,---,0.00,0.00,VWS V14.00,2013-01-27 10:24:00,
2013-01-27 04:28:00,50.6,49.8,30.08,ESE,118,0.0,2.0,97,0.00,,---,0.00,0.00,VWS V14.00,2013-01-27 10:28:00,
2013-01-27 04:30:00,50.6,49.8,30.08,ESE,118,0.0,2.0,97,0.00,,---,0.00,0.00,VWS V14.00,2013-01-27 10:30:00,
2013-01-27 04:32:00,50.6,49.8,30.08,ESE,118,0.0,0.0,97,0.00,,---,0.00,0.00,VWS V14.00,2013-01-27 10:32:00,
2013-01-27 04:36:00,50.6,49.8,30.08,ESE,119,2.0,2.0,97,0.00,,---,0.00,0.00,VWS V14.00,2013-01-27 10:36:00,
2013-01-27 04:40:00,50.7,49.9,30.08,SE,130,3.0,4.0,97,0.00,,---,0.00,0.00,VWS V14.00,2013-01-27 10:40:00,
2013-01-27 04:44:00,50.8,50.0,30.07,SE,132,4.0,4.0,97,0.00,,---,0.00,0.00,VWS V14.00,2013-01-27 10:44:00,
2013-01-27 04:48:00,50.9,50.1,30.07,ESE,123,5.0,5.0,97,0.00,,---,0.00,0.00,VWS V14.00,2013-01-27 10:48:00,
2013-01-27 04:52:00,50.9,50.1,30.07,ESE,117,3.0,5.0,97,0.00,,---,0.00,0.00,VWS V14.00,2013-01-27 10:52:00,
2013-01-27 04:56:00,51.0,50.2,30.07,ESE,119,2.0,5.0,97,0.00,,---,0.00,0.00,VWS V14.00,2013-01-27 10:56:00,
2013-01-27 05:00:00,51.0,50.2,30.07,ESE,118,0.0,5.0,97,0.00,,---,0.00,0.00,VWS V14.00,2013-01-27 11:00:00,
2013-01-27 05:04:00,51.2,50.4,30.07,ESE,119,0.0,0.0,97,0.00,,---,0.00,0.00,VWS V14.00,2013-01-27 11:04:00,
2013-01-27 05:08:00,51.3,50.5,30.07,ESE,119,0.0,0.0,97,0.00,,---,0.00,0.00,VWS V14.00,2013-01-27 11:08:00,
2013-01-27 05:12:00,51.4,50.6,30.07,ESE,119,0.0,0.0,97,0.00,,---,0.00,0.00,VWS V14.00,2013-01-27 11:12:00,
2013-01-27 05:16:00,51.3,50.5,30.08,East,89,1.0,2.0,97,0.00,,---,0.00,0.00,VWS V14.00,2013-01-27 11:16:00,
2013-01-27 05:21:00,51.3,50.5,30.08,ESE,110,2.0,2.0,97,0.00,,---,0.00,0.00,VWS V14.00,2013-01-27 11:21:00,
2013-01-27 05:25:00,51.4,50.6,30.08,ESE,110,0.0,2.0,97,0.00,,---,0.00,0.00,VWS V14.00,2013-01-27 11:25:00,
2013-01-27 05:29:00,51.5,50.7,30.08,ESE,111,0.0,2.0,97,0.00,,---,0.00,0.00,VWS V14.00,2013-01-27 11:29:00,
2013-01-27 05:30:00,51.5,50.7,30.08,ESE,111,0.0,2.0,97,0.00,,---,0.00,0.00,VWS V14.00,2013-01-27 11:30:00,
2013-01-27 05:33:00,51.6,50.8,30.08,SE,138,2.0,2.0,97,0.00,,---,0.00,0.00,VWS V14.00,2013-01-27 11:33:00,
2013-01-27 05:37:00,51.7,50.9,30.08,SE,136,0.0,2.0,97,0.00,,---,0.00,0.00,VWS V14.00,2013-01-27 11:37:00,
2013-01-27 05:41:00,51.7,50.9,30.08,SE,136,2.0,2.0,97,0.00,,---,0.00,0.00,VWS V14.00,2013-01-27 11:41:00,
2013-01-27 05:45:00,51.7,50.9,30.09,SE,136,0.0,2.0,97,0.00,,---,0.00,0.00,VWS V14.00,2013-01-27 11:45:00,
2013-01-27 05:49:00,51.7,50.9,30.09,ESE,118,5.0,5.0,97,0.00,,---,0.00,0.00,VWS V14.00,2013-01-27 11:49:00,
2013-01-27 05:53:00,51.6,50.8,30.09,ESE,111,5.0,5.0,97,0.00,,---,0.00,0.00,VWS V14.00,2013-01-27 11:53:00,
2013-01-27 05:57:00,51.7,50.9,30.09,ESE,119,5.0,5.0,97,0.00,,---,0.00,0.00,VWS V14.00,2013-01-27 11:57:00,
2013-01-27 06:00:00,51.7,50.9,30.08,ESE,108,4.0,5.0,97,0.00,,---,0.00,0.00,VWS V14.00,2013-01-27 12:00:00,
2013-01-27 06:01:00,51.7,50.9,30.08,ESE,121,5.0,5.0,97,0.00,,---,0.00,0.00,VWS V14.00,2013-01-27 12:01:00,
2013-01-27 06:05:00,51.8,51.0,30.08,SE,124,4.0,5.0,97,0.00,,---,0.00,0.00,VWS V14.00,2013-01-27 12:05:00,
2013-01-27 06:09:00,51.9,51.1,30.08,ESE,115,5.0,5.0,97,0.00,,---,0.00,0.00,VWS V14.00,2013-01-27 12:09:00,
2013-01-27 06:13:00,51.9,51.1,30.08,ESE,123,4.0,5.0,97,0.00,,---,0.00,0.00,VWS V14.00,2013-01-27 12:13:00,
2013-01-27 06:17:00,52.0,51.2,30.09,ESE,120,3.0,5.0,97,0.00,,---,0.00,0.00,VWS V14.00,2013-01-27 12:17:00,
2013-01-27 06:21:00,52.1,51.3,30.09,SE,140,2.0,6.0,97,0.00,,---,0.00,0.00,VWS V14.00,2013-01-27 12:21:00,
2013-01-27 06:25:00,52.1,51.3,30.09,SE,139,2.0,6.0,97,0.00,,---,0.00,0.00,VWS V14.00,2013-01-27 12:25:00,
2013-01-27 06:29:00,52.2,51.4,30.09,SE,139,0.0,6.0,97,0.00,,---,0.00,0.00,VWS V14.00,2013-01-27 12:29:00,
2013-01-27 06:30:00,52.2,51.4,30.10,SE,139,0.0,6.0,97,0.00,,---,0.00,0.00,VWS V14.00,2013-01-27 12:30:00,
2013-01-27 06:33:00,52.2,51.4,30.10,SE,141,0.0,0.0,97,0.00,,---,0.00,0.00,VWS V14.00,2013-01-27 12:33:00,
2013-01-27 06:37:00,52.3,51.5,30.10,SSE,148,0.0,0.0,97,0.00,,---,0.00,0.00,VWS V14.00,2013-01-27 12:37:00,
2013-01-27 06:41:00,52.3,51.5,30.10,SSE,147,2.0,2.0,97,0.00,,---,0.00,0.00,VWS V14.00,2013-01-27 12:41:00,
2013-01-27 06:45:00,52.3,51.5,30.10,SE,142,1.0,5.0,97,0.00,,---,0.00,0.00,VWS V14.00,2013-01-27 12:45:00,
2013-01-27 06:49:00,52.3,51.5,30.10,SE,130,5.0,6.0,97,0.00,,---,0.00,0.00,VWS V14.00,2013-01-27 12:49:00,
2013-01-27 06:53:00,52.3,51.5,30.10,SE,138,4.0,6.0,97,0.00,,---,0.00,0.00,VWS V14.00,2013-01-27 12:53:00,
2013-01-27 06:57:00,52.3,51.5,30.10,SE,132,4.0,6.0,97,0.00,,---,0.00,0.00,VWS V14.00,2013-01-27 12:57:00,
2013-01-27 07:00:00,52.3,51.5,30.10,SE,141,2.0,6.0,97,0.00,,---,0.00,0.00,VWS V14.00,2013-01-27 13:00:00,
2013-01-27 07:01:00,52.3,51.5,30.10,SE,142,4.0,5.0,97,0.00,,---,0.00,0.00,VWS V14.00,2013-01-27 13:01:00,
2013-01-27 07:05:00,52.3,51.5,30.10,SSE,161,3.0,5.0,97,0.00,,---,0.00,0.00,VWS V14.00,2013-01-27 13:05:00,
2013-01-27 07:09:00,52.4,51.6,30.10,SE,136,2.0,5.0,97,0.00,,---,0.00,0.00,VWS V14.00,2013-01-27 13:09:00,
2013-01-27 07:13:00,52.4,51.6,30.10,SSE,153,3.0,5.0,97,0.00,,---,0.00,9.00,VWS V14.00,2013-01-27 13:13:00,
2013-01-27 07:17:00,52.6,51.8,30.10,SE,128,2.0,6.0,97,0.00,,---,0.00,12.00,VWS V14.00,2013-01-27 13:17:00,
2013-01-27 07:21:00,52.6,51.8,30.10,SE,141,1.0,6.0,97,0.00,,---,0.00,23.00,VWS V14.00,2013-01-27 13:21:00,
2013-01-27 07:25:00,52.7,51.9,30.10,SE,142,2.0,6.0,97,0.00,,---,0.00,30.00,VWS V14.00,2013-01-27 13:25:00,
2013-01-27 07:29:00,52.7,51.9,30.10,SE,135,1.0,6.0,97,0.00,,---,0.00,32.00,VWS V14.00,2013-01-27 13:29:00,
2013-01-27 07:30:00,52.7,51.9,30.10,SE,135,1.0,6.0,97,0.00,,---,0.00,32.00,VWS V14.00,2013-01-27 13:30:00,
2013-01-27 07:33:00,52.8,52.0,30.10,SE,142,2.0,3.0,97,0.00,,---,0.00,42.00,VWS V14.00,2013-01-27 13:33:00,
2013-01-27 07:37:00,52.9,52.1,30.10,SE,140,2.0,4.0,97,0.00,,---,0.00,54.00,VWS V14.00,2013-01-27 13:37:00,
2013-01-27 07:42:00,53.0,52.2,30.10,SE,130,3.0,5.0,97,0.00,,---,0.00,54.00,VWS V14.00,2013-01-27 13:42:00,
2013-01-27 07:46:00,53.0,52.2,30.10,SE,132,2.0,5.0,97,0.00,,---,0.00,40.00,VWS V14.00,2013-01-27 13:46:00,
2013-01-27 07:50:00,53.0,52.2,30.10,ESE,119,3.0,5.0,97,0.00,,---,0.00,47.00,VWS V14.00,2013-01-27 13:50:00,
2013-01-27 07:54:00,53.1,52.3,30.10,SE,140,3.0,5.0,97,0.00,,---,0.00,37.00,VWS V14.00,2013-01-27 13:54:00,
2013-01-27 07:58:00,53.1,52.3,30.10,SE,128,3.0,6.0,97,0.00,,---,0.00,44.00,VWS V14.00,2013-01-27 13:58:00,
2013-01-27 08:00:00,53.2,52.4,30.10,SE,125,4.0,6.0,97,0.00,,---,0.00,40.00,VWS V14.00,2013-01-27 14:00:00,
2013-01-27 08:02:00,53.2,52.4,30.10,ESE,119,5.0,5.0,97,0.00,,---,0.00,49.00,VWS V14.00,2013-01-27 14:02:00,
2013-01-27 08:06:00,53.3,52.5,30.10,SE,133,3.0,5.0,97,0.00,,---,0.00,42.00,VWS V14.00,2013-01-27 14:06:00,
2013-01-27 08:10:00,53.4,52.6,30.10,SE,133,4.0,5.0,97,0.00,,---,0.00,77.00,VWS V14.00,2013-01-27 14:10:00,
2013-01-27 08:14:00,53.6,52.8,30.10,ESE,114,4.0,6.0,97,0.00,,---,0.00,100.00,VWS V14.00,2013-01-27 14:14:00,
2013-01-27 08:18:00,53.7,52.9,30.10,South,169,1.0,6.0,97,0.00,,---,0.00,107.00,VWS V14.00,2013-01-27 14:18:00,
2013-01-27 08:22:00,53.9,53.1,30.10,ESE,114,3.0,6.0,97,0.00,,---,0.00,84.00,VWS V14.00,2013-01-27 14:22:00,
2013-01-27 08:26:00,53.9,53.1,30.10,SE,126,3.0,6.0,97,0.00,,---,0.00,104.00,VWS V14.00,2013-01-27 14:26:00,
2013-01-27 08:30:00,54.2,53.4,30.10,SE,142,4.0,6.0,97,0.00,,---,0.00,120.00,VWS V14.00,2013-01-27 14:30:00,
2013-01-27 08:34:00,54.2,53.4,30.10,SE,132,4.0,5.0,97,0.00,,---,0.00,121.00,VWS V14.00,2013-01-27 14:34:00,
2013-01-27 08:38:00,54.4,53.6,30.10,SE,134,4.0,5.0,97,0.00,,---,0.00,120.00,VWS V14.00,2013-01-27 14:38:00,
2013-01-27 08:42:00,54.6,53.8,30.10,SE,134,3.0,5.0,97,0.00,,---,0.00,132.00,VWS V14.00,2013-01-27 14:42:00,
2013-01-27 08:46:00,54.8,54.0,30.10,SE,142,4.0,5.0,97,0.00,,---,0.00,125.00,VWS V14.00,2013-01-27 14:46:00,
2013-01-27 08:50:00,54.8,54.0,30.10,SE,138,3.0,5.0,97,0.00,,---,0.00,95.00,VWS V14.00,2013-01-27 14:50:00,
2013-01-27 08:54:00,54.8,54.0,30.10,SE,131,4.0,5.0,97,0.00,,---,0.00,97.00,VWS V14.00,2013-01-27 14:54:00,
2013-01-27 08:58:00,55.0,54.2,30.10,SE,144,2.0,5.0,97,0.00,,---,0.00,116.00,VWS V14.00,2013-01-27 14:58:00,
2013-01-27 09:00:00,55.1,54.3,30.10,SE,143,3.0,5.0,97,0.00,,---,0.00,118.00,VWS V14.00,2013-01-27 15:00:00,
2013-01-27 09:02:00,55.3,54.5,30.10,SE,144,3.0,4.0,97,0.00,,---,0.00,163.00,VWS V14.00,2013-01-27 15:02:00,
2013-01-27 09:06:00,55.8,55.0,30.10,SE,146,6.0,6.0,97,0.00,,---,0.00,137.00,VWS V14.00,2013-01-27 15:06:00,
2013-01-27 09:10:00,56.2,55.4,30.10,SE,134,4.0,6.0,97,0.00,,---,0.00,141.00,VWS V14.00,2013-01-27 15:10:00,
2013-01-27 09:14:00,56.2,55.4,30.10,SE,140,4.0,6.0,97,0.00,,---,0.00,188.00,VWS V14.00,2013-01-27 15:14:00,
2013-01-27 09:18:00,56.7,55.9,30.10,SE,143,6.0,6.0,97,0.00,,---,0.00,107.00,VWS V14.00,2013-01-27 15:18:00,
2013-01-27 09:22:00,57.1,56.3,30.10,SSE,157,6.0,8.0,97,0.00,,---,0.00,169.00,VWS V14.00,2013-01-27 15:22:00,
2013-01-27 09:26:00,57.4,56.6,30.10,SSE,162,6.0,11.0,97,0.00,,---,0.00,213.00,VWS V14.00,2013-01-27 15:26:00,
2013-01-27 09:30:00,57.5,56.7,30.10,SSE,165,10.0,15.0,97,0.00,,---,0.00,176.00,VWS V14.00,2013-01-27 15:30:00,
2013-01-27 09:34:00,57.7,56.9,30.10,South,175,10.0,12.0,97,0.00,,---,0.00,202.00,VWS V14.00,2013-01-27 15:34:00,
2013-01-27 09:38:00,57.7,56.9,30.10,SSE,166,7.0,13.0,97,0.00,,---,0.00,195.00,VWS V14.00,2013-01-27 15:38:00,
2013-01-27 09:42:00,57.9,57.1,30.10,SSE,158,8.0,13.0,97,0.00,,---,0.00,248.00,VWS V14.00,2013-01-27 15:42:00,
2013-01-27 09:46:00,58.2,57.4,30.09,South,173,6.0,13.0,97,0.00,,---,0.00,262.00,VWS V14.00,2013-01-27 15:46:00,
2013-01-27 09:50:00,58.5,57.7,30.09,SSE,155,8.0,13.0,97,0.00,,---,0.00,271.00,VWS V14.00,2013-01-27 15:50:00,
2013-01-27 09:54:00,59.1,58.2,30.09,SSW,194,9.0,13.0,97,0.00,,---,0.00,346.00,VWS V14.00,2013-01-27 15:54:00,
2013-01-27 09:58:00,59.3,58.5,30.09,SSE,153,11.0,13.0,97,0.00,,---,0.00,350.00,VWS V14.00,2013-01-27 15:58:00,
2013-01-27 10:00:00,59.4,58.5,30.09,SSE,162,11.0,16.0,97,0.00,,---,0.00,299.00,VWS V14.00,2013-01-27 16:00:00,
2013-01-27 10:02:00,59.3,58.2,30.09,South,171,7.0,13.0,96,0.00,,---,0.00,278.00,VWS V14.00,2013-01-27 16:02:00,
2013-01-27 10:06:00,59.5,58.1,30.09,South,180,13.0,13.0,95,0.00,,---,0.00,450.00,VWS V14.00,2013-01-27 16:06:00,
2013-01-27 10:11:00,59.7,58.0,30.09,South,169,10.0,14.0,94,0.00,,---,0.00,276.00,VWS V14.00,2013-01-27 16:11:00,
2013-01-27 10:15:00,59.8,57.8,30.09,SSE,164,9.0,15.0,93,0.00,,---,0.00,178.00,VWS V14.00,2013-01-27 16:15:00,
2013-01-27 10:19:00,59.8,57.8,30.09,SSE,158,10.0,15.0,93,0.00,,---,0.00,204.00,VWS V14.00,2013-01-27 16:19:00,
2013-01-27 10:23:00,59.8,57.8,30.09,SSE,165,7.0,15.0,93,0.00,,---,0.00,213.00,VWS V14.00,2013-01-27 16:23:00,
2013-01-27 10:27:00,60.1,58.1,30.09,SSE,159,10.0,15.0,93,0.00,,---,0.00,359.00,VWS V14.00,2013-01-27 16:27:00,
2013-01-27 10:30:00,60.5,58.5,30.10,South,185,10.0,15.0,93,0.00,,---,0.00,381.00,VWS V14.00,2013-01-27 16:30:00,
2013-01-27 10:31:00,60.5,58.5,30.10,South,178,4.0,10.0,93,0.00,,---,0.00,202.00,VWS V14.00,2013-01-27 16:31:00,
2013-01-27 10:35:00,60.5,58.2,30.10,South,184,5.0,10.0,92,0.00,,---,0.00,102.00,VWS V14.00,2013-01-27 16:35:00,
2013-01-27 10:39:00,60.5,58.5,30.10,SSE,167,6.0,10.0,93,0.00,,---,0.00,190.00,VWS V14.00,2013-01-27 16:39:00,
2013-01-27 10:43:00,60.4,58.1,30.10,SSE,161,5.0,10.0,92,0.00,,---,0.00,132.00,VWS V14.00,2013-01-27 16:43:00,
2013-01-27 10:47:00,60.7,58.4,30.09,ESE,123,5.0,10.0,92,0.00,,---,0.00,193.00,VWS V14.00,2013-01-27 16:47:00,
2013-01-27 10:51:00,60.9,58.6,30.09,South,172,5.0,10.0,92,0.00,,---,0.00,174.00,VWS V14.00,2013-01-27 16:51:00,
2013-01-27 10:55:00,61.0,58.7,30.09,South,175,5.0,10.0,92,0.00,,---,0.00,165.00,VWS V14.00,2013-01-27 16:55:00,
2013-01-27 10:59:00,61.2,58.9,30.09,South,184,3.0,10.0,92,0.00,,---,0.00,195.00,VWS V14.00,2013-01-27 16:59:00,
2013-01-27 11:00:00,61.3,59.0,30.08,SSE,163,6.0,10.0,92,0.00,,---,0.00,221.00,VWS V14.00,2013-01-27 17:00:00,
2013-01-27 11:03:00,61.5,58.8,30.08,South,173,6.0,6.0,91,0.00,,---,0.00,315.00,VWS V14.00,2013-01-27 17:03:00,
2013-01-27 11:07:00,62.1,59.5,30.08,South,172,2.0,7.0,91,0.00,,---,0.00,297.00,VWS V14.00,2013-01-27 17:07:00,
2013-01-27 11:11:00,62.6,59.6,30.08,South,172,4.0,7.0,90,0.00,,---,0.00,244.00,VWS V14.00,2013-01-27 17:11:00,
2013-01-27 11:15:00,62.9,60.2,30.07,SSE,167,6.0,9.0,91,0.00,,---,0.00,443.00,VWS V14.00,2013-01-27 17:15:00,
2013-01-27 11:19:00,64.0,61.0,30.07,SSE,163,6.0,9.0,90,0.00,,---,0.00,485.00,VWS V14.00,2013-01-27 17:19:00,
2013-01-27 11:23:00,64.2,60.6,30.07,South,184,7.0,10.0,88,0.00,,---,0.00,406.00,VWS V14.00,2013-01-27 17:23:00,
2013-01-27 11:27:00,64.4,60.8,30.07,South,176,4.0,10.0,88,0.00,,---,0.00,330.00,VWS V14.00,2013-01-27 17:27:00,
2013-01-27 11:30:00,64.7,60.8,30.06,South,191,7.0,10.0,87,0.00,,---,0.00,381.00,VWS V14.00,2013-01-27 17:30:00,
2013-01-27 11:31:00,64.8,60.8,30.06,SSE,159,9.0,9.0,87,0.00,,---,0.00,329.00,VWS V14.00,2013-01-27 17:31:00,
2013-01-27 11:35:00,65.1,60.8,30.06,SSE,163,11.0,12.0,86,0.00,,---,0.00,287.00,VWS V14.00,2013-01-27 17:35:00,
2013-01-27 11:39:00,65.0,60.7,30.06,South,171,7.0,12.0,86,0.00,,---,0.00,390.00,VWS V14.00,2013-01-27 17:39:00,
2013-01-27 11:43:00,65.6,61.3,30.06,South,176,6.0,12.0,86,0.00,,---,0.00,338.00,VWS V14.00,2013-01-27 17:43:00,
2013-01-27 11:47:00,66.0,61.4,30.05,SSW,196,8.0,15.0,85,0.00,,---,0.00,336.00,VWS V14.00,2013-01-27 17:47:00,
2013-01-27 11:51:00,66.5,61.5,30.05,SSE,164,9.0,15.0,84,0.00,,---,0.00,487.00,VWS V14.00,2013-01-27 17:51:00,
2013-01-27 11:55:00,67.1,62.1,30.05,South,171,6.0,15.0,84,0.00,,---,0.00,510.00,VWS V14.00,2013-01-27 17:55:00,
2013-01-27 11:59:00,67.9,61.9,30.03,South,180,9.0,15.0,81,0.00,,---,0.00,605.00,VWS V14.00,2013-01-27 17:59:00,
2013-01-27 12:00:00,68.0,62.0,30.03,South,178,6.0,15.0,81,0.00,,---,0.00,517.00,VWS V14.00,2013-01-27 18:00:00,
2013-01-27 12:03:00,67.8,61.4,30.03,South,178,9.0,9.0,80,0.00,,---,0.00,536.00,VWS V14.00,2013-01-27 18:03:00,
2013-01-27 12:07:00,67.9,61.9,30.03,South,171,9.0,11.0,81,0.00,,---,0.00,406.00,VWS V14.00,2013-01-27 18:07:00,
2013-01-27 12:11:00,67.9,61.5,30.03,South,169,7.0,13.0,80,0.00,,---,0.00,213.00,VWS V14.00,2013-01-27 18:11:00,
2013-01-27 12:15:00,68.0,61.2,30.03,South,182,4.0,13.0,79,0.00,,---,0.00,360.00,VWS V14.00,2013-01-27 18:15:00,
2013-01-27 12:19:00,68.1,61.3,30.03,South,186,12.0,15.0,79,0.00,,---,0.00,332.00,VWS V14.00,2013-01-27 18:19:00,
2013-01-27 12:23:00,68.3,61.2,30.03,SSE,161,12.0,15.0,78,0.00,,---,0.00,352.00,VWS V14.00,2013-01-27 18:23:00,
2013-01-27 12:27:00,68.2,61.1,30.03,SSE,167,13.0,15.0,78,0.00,,---,0.00,411.00,VWS V14.00,2013-01-27 18:27:00,
2013-01-27 12:30:00,68.1,61.3,30.01,SSE,155,14.0,15.0,79,0.00,,---,0.00,336.00,VWS V14.00,2013-01-27 18:30:00,
2013-01-27 12:31:00,68.2,61.1,30.01,South,173,9.0,14.0,78,0.00,,---,0.00,290.00,VWS V14.00,2013-01-27 18:31:00,
2013-01-27 12:36:00,68.2,61.5,30.01,South,181,6.0,14.0,79,0.00,,---,0.00,302.00,VWS V14.00,2013-01-27 18:36:00,
2013-01-27 12:40:00,68.8,61.7,30.01,SSE,164,12.0,14.0,78,0.00,,---,0.00,332.00,VWS V14.00,2013-01-27 18:40:00,
2013-01-27 12:44:00,68.9,61.0,30.01,South,178,13.0,14.0,76,0.00,,---,0.00,301.00,VWS V14.00,2013-01-27 18:44:00,
2013-01-27 12:48:00,69.1,61.6,30.00,South,182,7.0,14.0,77,0.00,,---,0.00,246.00,VWS V14.00,2013-01-27 18:48:00,
2013-01-27 12:52:00,69.0,61.1,30.00,South,178,10.0,14.0,76,0.00,,---,0.00,125.00,VWS V14.00,2013-01-27 18:52:00,
2013-01-27 12:56:00,68.8,60.9,30.00,South,181,7.0,15.0,76,0.00,,---,0.00,90.00,VWS V14.00,2013-01-27 18:56:00,
2013-01-27 13:00:00,68.7,61.2,30.00,South,178,12.0,15.0,77,0.00,,---,0.00,128.00,VWS V14.00,2013-01-27 19:00:00,
2013-01-27 13:04:00,68.8,61.3,30.00,South,179,10.0,13.0,77,0.00,,---,0.00,239.00,VWS V14.00,2013-01-27 19:04:00,
2013-01-27 13:08:00,69.1,61.6,30.00,SSW,210,9.0,13.0,77,0.00,,---,0.00,239.00,VWS V14.00,2013-01-27 19:08:00,
2013-01-27 13:12:00,69.3,61.4,30.00,South,178,9.0,14.0,76,0.00,,---,0.00,292.00,VWS V14.00,2013-01-27 19:12:00,
2013-01-27 13:16:00,69.6,61.7,29.99,South,183,7.0,14.0,76,0.00,,---,0.00,288.00,VWS V14.00,2013-01-27 19:16:00,
2013-01-27 13:20:00,70.0,61.7,29.99,South,177,11.0,16.0,75,0.00,,---,0.00,387.00,VWS V14.00,2013-01-27 19:20:00,
2013-01-27 13:24:00,69.4,61.5,29.99,SSW,198,11.0,16.0,76,0.00,,---,0.00,229.00,VWS V14.00,2013-01-27 19:24:00,
2013-01-27 13:28:00,69.9,61.6,29.99,South,186,7.0,18.0,75,0.00,,---,0.00,213.00,VWS V14.00,2013-01-27 19:28:00,
2013-01-27 13:30:00,70.1,61.4,29.98,South,177,9.0,18.0,74,0.00,,---,0.00,218.00,VWS V14.00,2013-01-27 19:30:00,
2013-01-27 13:32:00,70.1,61.0,29.98,SSE,168,6.0,11.0,73,0.00,,---,0.00,209.00,VWS V14.00,2013-01-27 19:32:00,
2013-01-27 13:36:00,70.1,61.4,29.98,South,184,15.0,15.0,74,0.00,,---,0.00,257.00,VWS V14.00,2013-01-27 19:36:00,
2013-01-27 13:40:00,70.6,61.9,29.98,SSE,165,14.0,15.0,74,0.00,,---,0.00,290.00,VWS V14.00,2013-01-27 19:40:00,
2013-01-27 13:44:00,70.9,61.4,29.97,South,173,6.0,15.0,72,0.00,,---,0.00,387.00,VWS V14.00,2013-01-27 19:44:00,
2013-01-27 13:48:00,71.4,61.9,29.97,South,180,10.0,15.0,72,0.00,,---,0.00,633.00,VWS V14.00,2013-01-27 19:48:00,
2013-01-27 13:52:00,71.2,61.7,29.97,SSE,165,11.0,15.0,72,0.00,,---,0.00,675.00,VWS V14.00,2013-01-27 19:52:00,
2013-01-27 13:56:00,70.5,61.8,29.97,SSE,167,8.0,15.0,74,0.00,,---,0.00,241.00,VWS V14.00,2013-01-27 19:56:00,
2013-01-27 14:00:00,71.0,61.5,29.96,SE,137,16.0,16.0,72,0.00,,---,0.00,195.00,VWS V14.00,2013-01-27 20:00:00,
2013-01-27 14:04:00,70.6,61.5,29.96,SSE,154,9.0,13.0,73,0.00,,---,0.00,306.00,VWS V14.00,2013-01-27 20:04:00,
2013-01-27 14:08:00,70.6,61.5,29.96,SSE,153,12.0,14.0,73,0.00,,---,0.00,167.00,VWS V14.00,2013-01-27 20:08:00,
2013-01-27 14:12:00,70.8,61.7,29.96,SSE,151,12.0,14.0,73,0.00,,---,0.00,568.00,VWS V14.00,2013-01-27 20:12:00,
2013-01-27 14:16:00,71.2,62.5,29.96,SSE,163,6.0,14.0,74,0.00,,---,0.00,592.00,VWS V14.00,2013-01-27 20:16:00,
2013-01-27 14:20:00,71.5,62.0,29.96,SSE,150,13.0,14.0,72,0.00,,---,0.00,526.00,VWS V14.00,2013-01-27 20:20:00,
2013-01-27 14:24:00,71.6,62.1,29.96,SE,140,11.0,14.0,72,0.00,,---,0.00,527.00,VWS V14.00,2013-01-27 20:24:00,
2013-01-27 14:28:00,71.5,62.0,29.96,SE,138,11.0,14.0,72,0.00,,---,0.00,478.00,VWS V14.00,2013-01-27 20:28:00,
2013-01-27 14:30:00,71.3,61.4,29.95,SSW,194,9.0,14.0,71,0.00,,---,0.00,139.00,VWS V14.00,2013-01-27 20:30:00,
2013-01-27 14:32:00,71.0,61.5,29.95,SSE,160,12.0,12.0,72,0.00,,---,0.00,149.00,VWS V14.00,2013-01-27 20:32:00,
2013-01-27 14:36:00,71.1,61.2,29.95,SSE,152,7.0,13.0,71,0.00,,---,0.00,176.00,VWS V14.00,2013-01-27 20:36:00,
2013-01-27 14:40:00,71.1,61.2,29.95,SSE,165,7.0,13.0,71,0.00,,---,0.00,151.00,VWS V14.00,2013-01-27 20:40:00,
2013-01-27 14:45:00,71.2,61.3,29.94,SSE,164,7.0,13.0,71,0.00,,---,0.00,169.00,VWS V14.00,2013-01-27 20:45:00,
2013-01-27 14:49:00,71.1,61.2,29.94,SSE,156,11.0,13.0,71,0.00,,---,0.00,156.00,VWS V14.00,2013-01-27 20:49:00,
2013-01-27 14:53:00,71.0,61.1,29.94,SSE,162,12.0,13.0,71,0.00,,---,0.00,165.00,VWS V14.00,2013-01-27 20:53:00,
2013-01-27 14:57:00,71.2,60.9,29.94,SSE,164,6.0,13.0,70,0.00,,---,0.00,148.00,VWS V14.00,2013-01-27 20:57:00,
2013-01-27 15:00:00,72.0,61.7,29.94,South,186,7.0,13.0,70,0.00,,---,0.00,146.00,VWS V14.00,2013-01-27 21:00:00,
2013-01-27 15:01:00,72.2,61.9,29.94,South,171,5.0,7.0,70,0.00,,---,0.00,146.00,VWS V14.00,2013-01-27 21:01:00,
2013-01-27 15:05:00,72.7,61.1,29.94,SSW,206,9.0,9.0,67,0.00,,---,0.00,167.00,VWS V14.00,2013-01-27 21:05:00,
2013-01-27 15:09:00,73.5,60.6,29.94,South,177,9.0,13.0,64,0.00,,---,0.00,156.00,VWS V14.00,2013-01-27 21:09:00,
2013-01-27 15:13:00,73.5,60.6,29.94,South,186,7.0,13.0,64,0.00,,---,0.00,165.00,VWS V14.00,2013-01-27 21:13:00,
2013-01-27 15:17:00,73.7,60.3,29.94,SSE,165,11.0,13.0,63,0.00,,---,0.00,253.00,VWS V14.00,2013-01-27 21:17:00,
2013-01-27 15:21:00,73.8,60.4,29.94,South,169,9.0,13.0,63,0.00,,---,0.00,420.00,VWS V14.00,2013-01-27 21:21:00,
2013-01-27 15:25:00,73.7,60.3,29.94,South,182,10.0,17.0,63,0.00,,---,0.00,237.00,VWS V14.00,2013-01-27 21:25:00,
2013-01-27 15:29:00,73.1,59.8,29.94,South,188,15.0,17.0,63,0.00,,---,0.00,142.00,VWS V14.00,2013-01-27 21:29:00,
2013-01-27 15:30:00,73.1,60.2,29.94,South,184,7.0,17.0,64,0.00,,---,0.00,213.00,VWS V14.00,2013-01-27 21:30:00,
2013-01-27 15:33:00,73.3,60.4,29.94,SSE,167,10.0,15.0,64,0.00,,---,0.00,163.00,VWS V14.00,2013-01-27 21:33:00,
2013-01-27 15:37:00,73.4,60.5,29.94,SSW,193,6.0,15.0,64,0.00,,---,0.00,322.00,VWS V14.00,2013-01-27 21:37:00,
2013-01-27 15:41:00,73.8,60.4,29.94,South,186,15.0,15.0,63,0.00,,---,0.00,47.00,VWS V14.00,2013-01-27 21:41:00,
2013-01-27 15:45:00,73.1,60.2,29.94,South,185,16.0,16.0,64,0.00,,---,0.00,58.00,VWS V14.00,2013-01-27 21:45:00,
2013-01-27 15:49:00,72.8,60.4,29.94,South,173,6.0,17.0,65,0.00,,---,0.00,104.00,VWS V14.00,2013-01-27 21:49:00,
2013-01-27 15:53:00,72.8,60.4,29.94,SSE,163,13.0,17.0,65,0.00,,---,0.00,292.00,VWS V14.00,2013-01-27 21:53:00,
2013-01-27 15:57:00,73.4,60.9,29.94,SSW,209,5.0,17.0,65,0.00,,---,0.00,290.00,VWS V14.00,2013-01-27 21:57:00,
2013-01-27 16:00:00,73.4,60.5,29.94,South,186,4.0,17.0,64,0.00,,---,0.00,63.00,VWS V14.00,2013-01-27 22:00:00,
2013-01-27 16:01:00,73.4,60.9,29.94,South,186,12.0,12.0,65,0.00,,---,0.00,141.00,VWS V14.00,2013-01-27 22:01:00,
2013-01-27 16:05:00,73.4,60.5,29.94,SSW,209,10.0,17.0,64,0.00,,---,0.00,190.00,VWS V14.00,2013-01-27 22:05:00,
2013-01-27 16:09:00,73.7,60.8,29.94,South,175,5.0,17.0,64,0.00,,---,0.00,167.00,VWS V14.00,2013-01-27 22:09:00,
2013-01-27 16:13:00,73.1,60.2,29.94,SSW,198,12.0,17.0,64,0.00,,---,0.00,179.00,VWS V14.00,2013-01-27 22:13:00,
2013-01-27 16:17:00,73.1,60.7,29.94,South,177,5.0,17.0,65,0.00,,---,0.00,149.00,VWS V14.00,2013-01-27 22:17:00,
2013-01-27 16:21:00,72.8,60.4,29.94,SSE,168,10.0,17.0,65,0.00,,---,0.00,178.00,VWS V14.00,2013-01-27 22:21:00,
2013-01-27 16:25:00,72.3,60.7,29.94,South,171,9.0,17.0,67,0.00,,---,0.00,105.00,VWS V14.00,2013-01-27 22:25:00,
2013-01-27 16:29:00,72.3,60.3,29.93,SSE,159,13.0,17.0,66,0.00,,---,0.00,65.00,VWS V14.00,2013-01-27 22:29:00,
2013-01-27 16:30:00,72.3,60.7,29.93,South,183,10.0,17.0,67,0.00,,---,0.00,63.00,VWS V14.00,2013-01-27 22:30:00,
2013-01-27 16:33:00,72.3,60.3,29.93,SSW,192,6.0,12.0,66,0.00,,---,0.00,51.00,VWS V14.00,2013-01-27 22:33:00,
2013-01-27 16:37:00,72.1,61.0,29.93,South,175,6.0,12.0,68,0.00,,---,0.00,46.00,VWS V14.00,2013-01-27 22:37:00,
2013-01-27 16:41:00,72.0,60.5,29.93,South,175,6.0,12.0,67,0.00,,---,0.00,39.00,VWS V14.00,2013-01-27 22:41:00,
2013-01-27 16:45:00,71.9,59.9,29.93,South,178,6.0,12.0,66,0.00,,---,0.00,32.00,VWS V14.00,2013-01-27 22:45:00,
2013-01-27 16:49:00,71.2,60.1,29.93,South,171,6.0,12.0,68,0.00,,---,0.00,12.00,VWS V14.00,2013-01-27 22:49:00,
2013-01-27 16:53:00,71.3,60.2,29.93,South,172,6.0,12.0,68,0.00,,---,0.00,14.00,VWS V14.00,2013-01-27 22:53:00,
2013-01-27 16:57:00,70.9,59.8,29.93,South,171,8.0,12.0,68,0.00,,---,0.00,14.00,VWS V14.00,2013-01-27 22:57:00,
2013-01-27 17:00:00,70.8,59.7,29.93,SSE,151,6.0,12.0,68,0.00,,---,0.00,14.00,VWS V14.00,2013-01-27 23:00:00,
2013-01-27 17:01:00,70.7,60.0,29.93,SSE,155,5.0,5.0,69,0.00,,---,0.00,16.00,VWS V14.00,2013-01-27 23:01:00,
2013-01-27 17:05:00,70.5,59.8,29.93,SSE,159,4.0,6.0,69,0.00,,---,0.00,18.00,VWS V14.00,2013-01-27 23:05:00,
2013-01-27 17:10:00,70.1,59.9,29.93,SSE,168,2.0,10.0,70,0.00,,---,0.00,16.00,VWS V14.00,2013-01-27 23:10:00,
2013-01-27 17:14:00,70.2,60.8,29.93,SSE,166,7.0,10.0,72,0.00,,---,0.00,12.00,VWS V14.00,2013-01-27 23:14:00,
2013-01-27 17:18:00,70.1,60.3,29.93,SSE,164,9.0,10.0,71,0.00,,---,0.00,9.00,VWS V14.00,2013-01-27 23:18:00,
2013-01-27 17:22:00,69.9,60.1,29.93,SSE,165,8.0,10.0,71,0.00,,---,0.00,7.00,VWS V14.00,2013-01-27 23:22:00,
2013-01-27 17:26:00,70.0,60.6,29.93,South,178,9.0,11.0,72,0.00,,---,0.00,0.00,VWS V14.00,2013-01-27 23:26:00,
2013-01-27 17:30:00,70.5,60.7,29.93,South,175,5.0,11.0,71,0.00,,---,0.00,0.00,VWS V14.00,2013-01-27 23:30:00,
2013-01-27 17:34:00,69.9,60.1,29.93,South,186,6.0,10.0,71,0.00,,---,0.00,0.00,VWS V14.00,2013-01-27 23:34:00,
2013-01-27 17:38:00,69.8,60.0,29.93,South,175,9.0,11.0,71,0.00,,---,0.00,0.00,VWS V14.00,2013-01-27 23:38:00,
2013-01-27 17:42:00,69.6,60.2,29.93,SSE,168,10.0,11.0,72,0.00,,---,0.00,0.00,VWS V14.00,2013-01-27 23:42:00,
2013-01-27 17:46:00,69.5,60.5,29.94,SSE,159,5.0,13.0,73,0.00,,---,0.00,0.00,VWS V14.00,2013-01-27 23:46:00,
2013-01-27 17:50:00,69.3,60.3,29.94,SSE,155,7.0,13.0,73,0.00,,---,0.00,0.00,VWS V14.00,2013-01-27 23:50:00,
2013-01-27 17:54:00,69.3,60.7,29.94,SSE,162,10.0,13.0,74,0.00,,---,0.00,0.00,VWS V14.00,2013-01-27 23:54:00,
2013-01-27 17:58:00,69.7,60.7,29.94,SSE,163,8.0,13.0,73,0.00,,---,0.00,0.00,VWS V14.00,2013-01-27 23:58:00,
2013-01-27 18:00:00,69.5,60.5,29.95,SSE,164,8.0,13.0,73,0.00,,---,0.00,0.00,VWS V14.00,2013-01-28 00:00:00,
2013-01-27 18:02:00,69.6,60.6,29.95,South,173,5.0,11.0,73,0.00,,---,0.00,0.00,VWS V14.00,2013-01-28 00:02:00,
2013-01-27 18:06:00,69.7,60.7,29.95,SSE,159,6.0,11.0,73,0.00,,---,0.00,0.00,VWS V14.00,2013-01-28 00:06:00,
2013-01-27 18:10:00,69.6,61.0,29.95,South,169,9.0,11.0,74,0.00,,---,0.00,0.00,VWS V14.00,2013-01-28 00:10:00,
2013-01-27 18:14:00,69.3,60.3,29.95,SSE,159,8.0,11.0,73,0.00,,---,0.00,0.00,VWS V14.00,2013-01-28 00:14:00,
2013-01-27 18:18:00,69.0,60.4,29.95,South,189,6.0,11.0,74,0.00,,---,0.00,0.00,VWS V14.00,2013-01-28 00:18:00,
2013-01-27 18:22:00,68.9,60.7,29.95,SSE,167,7.0,11.0,75,0.00,,---,0.00,0.00,VWS V14.00,2013-01-28 00:22:00,
2013-01-27 18:26:00,68.9,60.3,29.95,SSE,166,7.0,11.0,74,0.00,,---,0.00,0.00,VWS V14.00,2013-01-28 00:26:00,
2013-01-27 18:30:00,68.5,60.3,29.95,SSE,160,6.0,11.0,75,0.00,,---,0.00,0.00,VWS V14.00,2013-01-28 00:30:00,
2013-01-27 18:34:00,68.3,60.8,29.95,SSE,158,6.0,7.0,77,0.00,,---,0.00,0.00,VWS V14.00,2013-01-28 00:34:00,
2013-01-27 18:38:00,68.7,60.8,29.95,SSE,161,5.0,9.0,76,0.00,,---,0.00,0.00,VWS V14.00,2013-01-28 00:38:00,
2013-01-27 18:42:00,68.5,60.6,29.95,SSE,166,4.0,9.0,76,0.00,,---,0.00,0.00,VWS V14.00,2013-01-28 00:42:00,
2013-01-27 18:46:00,68.4,60.5,29.95,SSE,166,5.0,9.0,76,0.00,,---,0.00,0.00,VWS V14.00,2013-01-28 00:46:00,
2013-01-27 18:50:00,68.1,60.3,29.95,SSE,165,5.0,10.0,76,0.00,,---,0.00,0.00,VWS V14.00,2013-01-28 00:50:00,
2013-01-27 18:54:00,68.0,60.2,29.95,South,175,10.0,10.0,76,0.00,,---,0.00,0.00,VWS V14.00,2013-01-28 00:54:00,
2013-01-27 18:58:00,68.0,60.5,29.95,South,175,5.0,10.0,77,0.00,,---,0.00,0.00,VWS V14.00,2013-01-28 00:58:00,
2013-01-27 19:00:00,68.0,60.9,29.95,SSE,157,7.0,10.0,78,0.00,,---,0.00,0.00,VWS V14.00,2013-01-28 01:00:00,
2013-01-27 19:02:00,68.2,60.7,29.95,South,171,8.0,9.0,77,0.00,,---,0.00,0.00,VWS V14.00,2013-01-28 01:02:00,
2013-01-27 19:06:00,68.2,60.7,29.95,South,171,6.0,11.0,77,0.00,,---,0.00,0.00,VWS V14.00,2013-01-28 01:06:00,
2013-01-27 19:10:00,68.0,60.9,29.95,SSE,166,6.0,11.0,78,0.00,,---,0.00,0.00,VWS V14.00,2013-01-28 01:10:00,
2013-01-27 19:14:00,68.1,61.0,29.95,South,189,8.0,12.0,78,0.00,,---,0.00,0.00,VWS V14.00,2013-01-28 01:14:00,
2013-01-27 19:19:00,68.3,61.2,29.95,SSE,162,11.0,13.0,78,0.00,,---,0.00,0.00,VWS V14.00,2013-01-28 01:19:00,
2013-01-27 19:23:00,68.3,61.2,29.95,South,169,7.0,13.0,78,0.00,,---,0.00,0.00,VWS V14.00,2013-01-28 01:23:00,
2013-01-27 19:27:00,67.9,60.8,29.95,South,173,4.0,13.0,78,0.00,,---,0.00,0.00,VWS V14.00,2013-01-28 01:27:00,
2013-01-27 19:30:00,67.6,60.9,29.96,SSE,161,6.0,13.0,79,0.00,,---,0.00,0.00,VWS V14.00,2013-01-28 01:30:00,
2013-01-27 19:31:00,67.6,60.9,29.96,South,185,7.0,7.0,79,0.00,,---,0.00,0.00,VWS V14.00,2013-01-28 01:31:00,
2013-01-27 19:35:00,67.5,60.8,29.96,SSE,167,7.0,7.0,79,0.00,,---,0.00,0.00,VWS V14.00,2013-01-28 01:35:00,
2013-01-27 19:39:00,67.4,60.7,29.96,SSE,161,9.0,9.0,79,0.00,,---,0.00,0.00,VWS V14.00,2013-01-28 01:39:00,
2013-01-27 19:43:00,67.2,60.5,29.96,SSE,159,11.0,11.0,79,0.00,,---,0.00,0.00,VWS V14.00,2013-01-28 01:43:00,
2013-01-27 19:47:00,67.2,60.8,29.96,South,175,12.0,12.0,80,0.00,,---,0.00,0.00,VWS V14.00,2013-01-28 01:47:00,
2013-01-27 19:51:00,67.3,61.3,29.96,SSE,166,12.0,12.0,81,0.00,,---,0.00,0.00,VWS V14.00,2013-01-28 01:51:00,
2013-01-27 19:55:00,67.7,61.3,29.96,SSE,166,10.0,12.0,80,0.00,,---,0.00,0.00,VWS V14.00,2013-01-28 01:55:00,
2013-01-27 19:59:00,67.3,60.6,29.96,South,173,6.0,14.0,79,0.00,,---,0.00,0.00,VWS V14.00,2013-01-28 01:59:00,
2013-01-27 20:00:00,67.2,61.2,29.95,SSE,163,9.0,14.0,81,0.00,,---,0.00,0.00,VWS V14.00,2013-01-28 02:00:00,
2013-01-27 20:03:00,67.2,60.8,29.95,SSE,167,6.0,10.0,80,0.00,,---,0.00,0.00,VWS V14.00,2013-01-28 02:03:00,
2013-01-27 20:07:00,67.2,61.2,29.95,SSE,168,6.0,10.0,81,0.00,,---,0.00,0.00,VWS V14.00,2013-01-28 02:07:00,
2013-01-27 20:11:00,67.4,61.4,29.95,SSE,168,7.0,10.0,81,0.00,,---,0.00,0.00,VWS V14.00,2013-01-28 02:11:00,
2013-01-27 20:15:00,67.4,61.4,29.95,SSE,161,10.0,11.0,81,0.00,,---,0.00,0.00,VWS V14.00,2013-01-28 02:15:00,
2013-01-27 20:19:00,67.3,61.3,29.95,SSE,160,10.0,11.0,81,0.00,,---,0.00,0.00,VWS V14.00,2013-01-28 02:19:00,
2013-01-27 20:23:00,67.4,61.7,29.95,SSE,168,8.0,11.0,82,0.00,,---,0.00,0.00,VWS V14.00,2013-01-28 02:23:00,
2013-01-27 20:27:00,67.4,61.7,29.95,SSE,165,11.0,11.0,82,0.00,,---,0.00,0.00,VWS V14.00,2013-01-28 02:27:00,
2013-01-27 20:30:00,67.4,61.7,29.95,SSE,167,8.0,14.0,82,0.00,,---,0.00,0.00,VWS V14.00,2013-01-28 02:30:00,
2013-01-27 20:31:00,67.3,61.3,29.95,SSE,167,7.0,8.0,81,0.00,,---,0.00,0.00,VWS V14.00,2013-01-28 02:31:00,
2013-01-27 20:35:00,67.3,61.3,29.95,South,169,10.0,10.0,81,0.00,,---,0.00,0.00,VWS V14.00,2013-01-28 02:35:00,
2013-01-27 20:39:00,67.5,61.8,29.95,SSE,161,8.0,13.0,82,0.00,,---,0.00,0.00,VWS V14.00,2013-01-28 02:39:00,
2013-01-27 20:43:00,67.7,61.7,29.95,South,173,8.0,13.0,81,0.00,,---,0.00,0.00,VWS V14.00,2013-01-28 02:43:00,
2013-01-27 20:47:00,67.6,61.9,29.95,South,175,6.0,13.0,82,0.00,,---,0.00,0.00,VWS V14.00,2013-01-28 02:47:00,
2013-01-27 20:51:00,67.7,62.0,29.95,South,170,11.0,13.0,82,0.00,,---,0.00,0.00,VWS V14.00,2013-01-28 02:51:00,
2013-01-27 20:55:00,68.0,62.3,29.95,South,173,7.0,13.0,82,0.00,,---,0.00,0.00,VWS V14.00,2013-01-28 02:55:00,
2013-01-27 20:59:00,68.3,62.6,29.95,SSE,155,10.0,16.0,82,0.00,,---,0.00,0.00,VWS V14.00,2013-01-28 02:59:00,
2013-01-27 21:00:00,68.3,62.6,29.95,South,171,10.0,16.0,82,0.00,,---,0.00,0.00,VWS V14.00,2013-01-28 03:00:00,
2013-01-27 21:03:00,68.2,62.5,29.95,SSE,167,10.0,10.0,82,0.00,,---,0.00,0.00,VWS V14.00,2013-01-28 03:03:00,
2013-01-27 21:07:00,68.5,62.8,29.95,SSE,166,7.0,12.0,82,0.00,,---,0.00,0.00,VWS V14.00,2013-01-28 03:07:00,
2013-01-27 21:11:00,68.4,62.0,29.95,South,180,9.0,12.0,80,0.00,,---,0.00,0.00,VWS V14.00,2013-01-28 03:11:00,
2013-01-27 21:15:00,68.4,62.7,29.96,South,183,6.0,12.0,82,0.00,,---,0.00,0.00,VWS V14.00,2013-01-28 03:15:00,
2013-01-27 21:19:00,68.4,63.0,29.96,South,186,9.0,13.0,83,0.00,,---,0.00,0.00,VWS V14.00,2013-01-28 03:19:00,
2013-01-27 21:23:00,68.5,62.8,29.96,SSE,163,10.0,13.0,82,0.00,,---,0.00,0.00,VWS V14.00,2013-01-28 03:23:00,
2013-01-27 21:27:00,68.3,62.6,29.96,South,176,5.0,13.0,82,0.00,,---,0.00,0.00,VWS V14.00,2013-01-28 03:27:00,
2013-01-27 21:30:00,68.3,62.6,29.96,SSE,163,12.0,13.0,82,0.00,,---,0.00,0.00,VWS V14.00,2013-01-28 03:30:00,
2013-01-27 21:32:00,68.4,63.0,29.96,South,184,9.0,12.0,83,0.00,,---,0.00,0.00,VWS V14.00,2013-01-28 03:32:00,
2013-01-27 21:36:00,68.4,63.0,29.96,SSE,162,7.0,12.0,83,0.00,,---,0.00,0.00,VWS V14.00,2013-01-28 03:36:00,
2013-01-27 21:40:00,68.3,62.9,29.96,South,170,11.0,12.0,83,0.00,,---,0.00,0.00,VWS V14.00,2013-01-28 03:40:00,
2013-01-27 21:44:00,68.3,62.9,29.96,SSE,159,10.0,12.0,83,0.00,,---,0.00,0.00,VWS V14.00,2013-01-28 03:44:00,
2013-01-27 21:48:00,68.0,62.3,29.96,SSE,159,9.0,12.0,82,0.00,,---,0.00,0.00,VWS V14.00,2013-01-28 03:48:00,
2013-01-27 21:52:00,68.0,62.7,29.96,SSE,163,4.0,12.0,83,0.00,,---,0.00,0.00,VWS V14.00,2013-01-28 03:52:00,
2013-01-27 21:56:00,68.1,62.8,29.96,South,184,5.0,12.0,83,0.00,,---,0.00,0.00,VWS V14.00,2013-01-28 03:56:00,
2013-01-27 22:00:00,67.9,62.5,29.96,South,171,5.0,12.0,83,0.00,,---,0.00,0.00,VWS V14.00,2013-01-28 04:00:00,
2013-01-27 22:04:00,67.8,62.8,29.96,South,190,11.0,11.0,84,0.00,,---,0.00,0.00,VWS V14.00,2013-01-28 04:04:00,
2013-01-27 22:08:00,68.0,63.0,29.96,South,186,6.0,11.0,84,0.00,,---,0.00,0.00,VWS V14.00,2013-01-28 04:08:00,
2013-01-27 22:12:00,68.1,63.1,29.96,South,182,6.0,11.0,84,0.00,,---,0.00,0.00,VWS V14.00,2013-01-28 04:12:00,
2013-01-27 22:16:00,67.9,62.9,29.96,South,180,5.0,11.0,84,0.00,,---,0.00,0.00,VWS V14.00,2013-01-28 04:16:00,
2013-01-27 22:20:00,68.0,63.0,29.96,South,169,6.0,11.0,84,0.00,,---,0.00,0.00,VWS V14.00,2013-01-28 04:20:00,
2013-01-27 22:24:00,67.4,62.4,29.96,South,173,6.0,11.0,84,0.00,,---,0.00,0.00,VWS V14.00,2013-01-28 04:24:00,
2013-01-27 22:28:00,67.4,63.1,29.96,South,172,4.0,11.0,86,0.00,,---,0.00,0.00,VWS V14.00,2013-01-28 04:28:00,
2013-01-27 22:30:00,67.5,62.8,29.97,South,185,8.0,11.0,85,0.00,,---,0.00,0.00,VWS V14.00,2013-01-28 04:30:00,
2013-01-27 22:32:00,67.7,63.0,29.97,South,172,6.0,8.0,85,0.00,,---,0.00,0.00,VWS V14.00,2013-01-28 04:32:00,
2013-01-27 22:36:00,67.6,62.6,29.97,SSW,207,5.0,8.0,84,0.00,,---,0.00,0.00,VWS V14.00,2013-01-28 04:36:00,
2013-01-27 22:40:00,67.7,63.0,29.97,South,186,7.0,8.0,85,0.00,,---,0.00,0.00,VWS V14.00,2013-01-28 04:40:00,
2013-01-27 22:44:00,67.4,62.4,29.97,South,171,5.0,8.0,84,0.00,,---,0.00,0.00,VWS V14.00,2013-01-28 04:44:00,
2013-01-27 22:48:00,67.3,62.3,29.97,South,170,3.0,9.0,84,0.00,,---,0.00,0.00,VWS V14.00,2013-01-28 04:48:00,
2013-01-27 22:52:00,67.0,62.3,29.97,South,176,6.0,9.0,85,0.00,,---,0.00,0.00,VWS V14.00,2013-01-28 04:52:00,
2013-01-27 22:56:00,67.3,63.0,29.97,South,191,9.0,9.0,86,0.00,,---,0.00,0.00,VWS V14.00,2013-01-28 04:56:00,
2013-01-27 23:00:00,67.3,62.6,29.98,South,188,2.0,9.0,85,0.00,,---,0.00,0.00,VWS V14.00,2013-01-28 05:00:00,
2013-01-27 23:04:00,67.6,63.6,29.98,South,174,5.0,11.0,87,0.00,,---,0.00,0.00,VWS V14.00,2013-01-28 05:04:00,
2013-01-27 23:08:00,67.6,62.9,29.98,SSW,194,9.0,11.0,85,0.00,,---,0.00,0.00,VWS V14.00,2013-01-28 05:08:00,
2013-01-27 23:12:00,67.5,62.5,29.98,South,183,8.0,11.0,84,0.00,,---,0.00,0.00,VWS V14.00,2013-01-28 05:12:00,
2013-01-27 23:16:00,67.6,63.3,29.97,South,182,6.0,11.0,86,0.00,,---,0.00,0.00,VWS V14.00,2013-01-28 05:16:00,
2013-01-27 23:20:00,67.6,63.3,29.97,South,182,5.0,11.0,86,0.00,,---,0.00,0.00,VWS V14.00,2013-01-28 05:20:00,
2013-01-27 23:24:00,67.5,63.5,29.97,South,178,6.0,11.0,87,0.00,,---,0.00,0.00,VWS V14.00,2013-01-28 05:24:00,
2013-01-27 23:28:00,67.5,63.2,29.97,South,182,7.0,11.0,86,0.00,,---,0.00,0.00,VWS V14.00,2013-01-28 05:28:00,
2013-01-27 23:30:00,67.5,63.2,29.98,South,188,5.0,11.0,86,0.00,,---,0.00,0.00,VWS V14.00,2013-01-28 05:30:00,
2013-01-27 23:32:00,67.5,63.2,29.98,SSW,203,12.0,12.0,86,0.00,,---,0.00,0.00,VWS V14.00,2013-01-28 05:32:00,
2013-01-27 23:36:00,67.9,63.6,29.98,South,187,6.0,12.0,86,0.00,,---,0.00,0.00,VWS V14.00,2013-01-28 05:36:00,
2013-01-27 23:40:00,67.8,63.5,29.98,South,171,8.0,12.0,86,0.00,,---,0.00,0.00,VWS V14.00,2013-01-28 05:40:00,
2013-01-27 23:44:00,67.9,63.2,29.99,SSW,196,5.0,12.0,85,0.00,,---,0.00,0.00,VWS V14.00,2013-01-28 05:44:00,
2013-01-27 23:48:00,67.7,63.4,29.99,South,181,4.0,12.0,86,0.00,,---,0.00,0.00,VWS V14.00,2013-01-28 05:48:00,
2013-01-27 23:52:00,67.7,63.4,29.99,SSW,200,2.0,12.0,86,0.00,,---,0.00,0.00,VWS V14.00,2013-01-28 05:52:00,
2013-01-27 23:56:00,67.6,62.9,29.99,SSE,164,5.0,12.0,85,0.00,,---,0.00,0.00,VWS V14.00,2013-01-28 05:56:00,